When you browse on this site, cookies collect data to enhance your experience and personalize the content and advertising you see.
Visit our Privacy Policy to learn more. By continuing to use the site, you agree to this use of cookies and data.
  • In Österreich
  • Länderverzeichnis
  • Für 7 Tage
  • Wassertemperatur
  • Satellitenkarten
  • Wetterkarte
  • News
  • Widgets
  • user-avatar
    Anmelden

    Stündliche Wetter Biarritz

    Heute, 18 Januar, Freitag

    Zeit Temperatur Niederschläge Wind Luftdruck Luftfeuchtigkeit
    00:00 +5°C° 0 mm 2 m/S 765 mmHg 94%
    01:00 +4°C° 0.1 mm 3 m/S 765 mmHg 94%
    02:00 +4°C° 0.1 mm 3 m/S 765 mmHg 94%
    03:00 +4°C° 0.1 mm 3 m/S 765 mmHg 95%
    04:00 +4°C° 0 mm 3 m/S 764 mmHg 94%
    05:00 +4°C° 0 mm 3 m/S 764 mmHg 93%
    06:00 +4°C° 0 mm 3 m/S 764 mmHg 92%
    07:00 +4°C° 0 mm 3 m/S 764 mmHg 90%
    08:00 +5°C° 0 mm 3 m/S 764 mmHg 88%
    09:00 +5°C° 0 mm 3 m/S 763 mmHg 86%
    10:00 +8°C° 0 mm 3 m/S 763 mmHg 81%
    11:00 +9°C° 0 mm 3 m/S 763 mmHg 77%
    12:00 +9°C° 0 mm 3 m/S 763 mmHg 72%
    13:00 +9°C° 0.1 mm 3 m/S 763 mmHg 71%
    14:00 +10°C° 0.1 mm 2 m/S 762 mmHg 70%
    15:00 +10°C° 0.1 mm 2 m/S 762 mmHg 69%
    16:00 +9°C° 0 mm 2 m/S 762 mmHg 74%
    17:00 +8°C° 0 mm 1 m/S 762 mmHg 79%
    18:00 +7°C° 0 mm 1 m/S 762 mmHg 84%
    19:00 +6°C° 0 mm 2 m/S 762 mmHg 84%
    20:00 +4°C° 0 mm 3 m/S 761 mmHg 85%
    21:00 +4°C° 0 mm 3 m/S 761 mmHg 85%
    22:00 +5°C° 0.1 mm 3 m/S 761 mmHg 83%
    23:00 +5°C° 0.1 mm 4 m/S 761 mmHg 81%

    Morgen, 19 Januar, Samstag

    Zeit Temperatur Niederschläge Wind Luftdruck Luftfeuchtigkeit
    00:00 +6°C° 0.1 mm 4 m/S 761 mmHg 79%
    01:00 +6°C° 0 mm 4 m/S 761 mmHg 79%
    02:00 +6°C° 0 mm 4 m/S 761 mmHg 80%
    03:00 +6°C° 0 mm 5 m/S 761 mmHg 81%
    04:00 +6°C° 0 mm 5 m/S 761 mmHg 82%
    05:00 +6°C° 0 mm 4 m/S 760 mmHg 83%
    06:00 +5°C° 0 mm 4 m/S 760 mmHg 84%
    07:00 +6°C° 0 mm 4 m/S 760 mmHg 83%
    08:00 +6°C° 0 mm 4 m/S 760 mmHg 81%
    09:00 +8°C° 0 mm 3 m/S 760 mmHg 79%
    10:00 +9°C° 0 mm 3 m/S 759 mmHg 74%
    11:00 +11°C° 0 mm 3 m/S 759 mmHg 69%
    12:00 +13°C° 0 mm 2 m/S 759 mmHg 64%
    13:00 +13°C° 0 mm 2 m/S 758 mmHg 62%
    14:00 +14°C° 0 mm 2 m/S 757 mmHg 60%
    15:00 +14°C° 0 mm 1 m/S 757 mmHg 58%
    16:00 +13°C° 0 mm 2 m/S 757 mmHg 63%
    17:00 +10°C° 0 mm 2 m/S 757 mmHg 68%
    18:00 +9°C° 0 mm 2 m/S 757 mmHg 73%
    19:00 +9°C° 0.3 mm 2 m/S 757 mmHg 76%
    20:00 +9°C° 0.3 mm 1 m/S 757 mmHg 79%
    21:00 +9°C° 0.3 mm 1 m/S 757 mmHg 82%
    22:00 +9°C° 0.5 mm 1 m/S 757 mmHg 85%
    23:00 +9°C° 0.5 mm 1 m/S 757 mmHg 87%

    übermorgen, 20 Januar, Sonntag

    Zeit Temperatur Niederschläge Wind Luftdruck Luftfeuchtigkeit
    00:00 +9°C° 0.5 mm 1 m/S 758 mmHg 89%
    01:00 +9°C° 0.3 mm 1 m/S 758 mmHg 90%
    02:00 +8°C° 0.3 mm 2 m/S 758 mmHg 90%
    03:00 +8°C° 0.3 mm 2 m/S 758 mmHg 90%
    04:00 +7°C° 0.3 mm 3 m/S 759 mmHg 91%
    05:00 +7°C° 0.3 mm 3 m/S 759 mmHg 92%
    06:00 +7°C° 0.3 mm 3 m/S 759 mmHg 93%
    07:00 +8°C° 0.9 mm 3 m/S 759 mmHg 92%
    08:00 +7°C° 0.9 mm 4 m/S 760 mmHg 91%
    09:00 +8°C° 0.9 mm 4 m/S 760 mmHg 89%
    10:00 +8°C° 0.5 mm 4 m/S 760 mmHg 85%
    11:00 +10°C° 0.5 mm 4 m/S 760 mmHg 82%
    12:00 +11°C° 0.5 mm 4 m/S 760 mmHg 78%
    13:00 +10°C° 0.6 mm 5 m/S 760 mmHg 79%
    14:00 +10°C° 0.6 mm 6 m/S 760 mmHg 81%
    15:00 +9°C° 0.6 mm 6 m/S 760 mmHg 83%
    16:00 +9°C° 0.9 mm 6 m/S 760 mmHg 85%
    17:00 +8°C° 0.9 mm 5 m/S 761 mmHg 88%
    18:00 +8°C° 0.9 mm 4 m/S 761 mmHg 90%
    19:00 +7°C° 0.9 mm 4 m/S 762 mmHg 91%
    20:00 +7°C° 0.9 mm 4 m/S 762 mmHg 92%
    21:00 +7°C° 0.9 mm 4 m/S 763 mmHg 93%
    22:00 +6°C° 0.9 mm 4 m/S 763 mmHg 93%
    23:00 +7°C° 0.9 mm 3 m/S 764 mmHg 93%

    21 Januar, Montag

    Zeit Temperatur Niederschläge Wind Luftdruck Luftfeuchtigkeit
    00:00 +7°C° 0.9 mm 3 m/S 764 mmHg 94%
    01:00 +7°C° 0.8 mm 3 m/S 764 mmHg 94%
    02:00 +7°C° 0.8 mm 3 m/S 764 mmHg 95%
    03:00 +6°C° 0.8 mm 2 m/S 765 mmHg 95%
    04:00 +6°C° 0.5 mm 2 m/S 765 mmHg 95%
    05:00 +6°C° 0.5 mm 2 m/S 765 mmHg 96%
    06:00 +5°C° 0.5 mm 2 m/S 765 mmHg 96%
    07:00 +6°C° 0.1 mm 2 m/S 766 mmHg 96%
    08:00 +6°C° 0.1 mm 2 m/S 766 mmHg 95%
    09:00 +7°C° 0.1 mm 2 m/S 767 mmHg 94%
    10:00 +7°C° 0 mm 2 m/S 767 mmHg 91%
    11:00 +8°C° 0 mm 2 m/S 767 mmHg 88%
    12:00 +8°C° 0 mm 2 m/S 768 mmHg 85%
    13:00 +8°C° 0.1 mm 2 m/S 767 mmHg 85%
    14:00 +8°C° 0.1 mm 3 m/S 767 mmHg 85%
    15:00 +8°C° 0.1 mm 3 m/S 767 mmHg 85%
    16:00 +8°C° 0.1 mm 3 m/S 767 mmHg 86%
    17:00 +7°C° 0.1 mm 3 m/S 768 mmHg 87%
    18:00 +7°C° 0.1 mm 3 m/S 768 mmHg 89%
    19:00 +7°C° 0.1 mm 2 m/S 768 mmHg 88%
    20:00 +7°C° 0.1 mm 2 m/S 769 mmHg 88%
    21:00 +7°C° 0.1 mm 2 m/S 769 mmHg 88%
    22:00 +7°C° 0.1 mm 2 m/S 768 mmHg 88%
    23:00 +7°C° 0.1 mm 2 m/S 768 mmHg 88%

    22 Januar, Dienstag

    Zeit Temperatur Niederschläge Wind Luftdruck Luftfeuchtigkeit
    00:00 +7°C° 0.1 mm 1 m/S 768 mmHg 88%
    01:00 +6°C° 0.1 mm 2 m/S 767 mmHg 89%
    02:00 +5°C° 0.1 mm 3 m/S 767 mmHg 90%
    03:00 +4°C° 0.1 mm 3 m/S 766 mmHg 90%
    04:00 +5°C° 0.2 mm 4 m/S 765 mmHg 90%
    05:00 +5°C° 0.2 mm 4 m/S 765 mmHg 90%
    06:00 +6°C° 0.2 mm 5 m/S 764 mmHg 90%
    07:00 +5°C° 1 mm 6 m/S 764 mmHg 90%
    08:00 +5°C° 1 mm 7 m/S 763 mmHg 89%
    09:00 +6°C° 1 mm 8 m/S 762 mmHg 88%
    10:00 +6°C° 1.5 mm 8 m/S 761 mmHg 88%
    11:00 +6°C° 1.5 mm 8 m/S 761 mmHg 87%
    12:00 +6°C° 1.5 mm 8 m/S 760 mmHg 87%
    13:00 +6°C° 2.5 mm 9 m/S 760 mmHg 88%
    14:00 +6°C° 2.5 mm 9 m/S 759 mmHg 88%
    15:00 +6°C° 2.5 mm 9 m/S 759 mmHg 89%
    16:00 +5°C° 1.6 mm 9 m/S 759 mmHg 89%
    17:00 +5°C° 1.6 mm 9 m/S 759 mmHg 89%
    18:00 +5°C° 1.6 mm 9 m/S 759 mmHg 89%
    19:00 +5°C° 1.4 mm 9 m/S 758 mmHg 88%
    20:00 +5°C° 1.4 mm 10 m/S 758 mmHg 87%
    21:00 +5°C° 1.4 mm 10 m/S 758 mmHg 86%
    22:00 +5°C° 0.9 mm 10 m/S 757 mmHg 86%
    23:00 +6°C° 0.9 mm 10 m/S 757 mmHg 86%

    23 Januar, Mittwoch

    Zeit Temperatur Niederschläge Wind Luftdruck Luftfeuchtigkeit
    00:00 +6°C° 0.9 mm 10 m/S 756 mmHg 85%
    01:00 +6°C° 1.3 mm 11 m/S 755 mmHg 86%
    02:00 +5°C° 1.3 mm 12 m/S 753 mmHg 87%
    03:00 +5°C° 1.3 mm 12 m/S 752 mmHg 88%
    04:00 +7°C° 2.4 mm 13 m/S 751 mmHg 87%
    05:00 +8°C° 2.4 mm 14 m/S 750 mmHg 86%
    06:00 +8°C° 2.4 mm 14 m/S 749 mmHg 85%
    07:00 +7°C° 0.8 mm 12 m/S 750 mmHg 86%
    08:00 +6°C° 0.8 mm 10 m/S 750 mmHg 88%
    09:00 +5°C° 0.8 mm 9 m/S 750 mmHg 90%
    10:00 +5°C° 1 mm 10 m/S 751 mmHg 88%
    11:00 +4°C° 1 mm 11 m/S 751 mmHg 86%
    12:00 +4°C° 1 mm 12 m/S 751 mmHg 83%
    13:00 +4°C° 0.7 mm 11 m/S 751 mmHg 83%
    14:00 +5°C° 0.7 mm 10 m/S 751 mmHg 82%
    15:00 +5°C° 0.7 mm 9 m/S 751 mmHg 81%
    16:00 +4°C° 1.4 mm 8 m/S 750 mmHg 84%
    17:00 +4°C° 1.4 mm 8 m/S 750 mmHg 86%
    18:00 +4°C° 1.4 mm 8 m/S 750 mmHg 89%
    19:00 +3°C° 0.9 mm 9 m/S 750 mmHg 86%
    20:00 +3°C° 0.9 mm 10 m/S 750 mmHg 83%
    21:00 +3°C° 0.9 mm 10 m/S 750 mmHg 81%
    22:00 +3°C° 0.7 mm 11 m/S 750 mmHg 80%
    23:00 +3°C° 0.7 mm 11 m/S 750 mmHg 79%
    Mehr zeigen